Regional Weather Roundup
Issued by NWS Newport/Morehead, NC

Current Version | Previous Version | Graphics & Text | Print | Product List | Glossary On
Versions: 1 2 3 4 5 6 7 8 9 10 11 12 13 14 15 16 17 18 19 20 21 22 23 24 25 26 27 28 29 30 31 32 33 34 35 36 37 38 39 40 41 42 43 44 45 46 47 48 49 50
000 ASUS42 KMHX 070612 RWRMHX WEATHER ROUNDUP FOR EASTERN NORTH CAROLINA NATIONAL WEATHER SERVICE NEWPORT/MOREHEAD CITY NC 100 AM EST WED DEC 07 2016 NOTE: "FAIR" INDICATES FEW OR NO CLOUDS BELOW 12,000 FEET WITH NO SIGNIFICANT WEATHER AND/OR OBSTRUCTIONS TO VISIBILITY NCZ015>017-031-032-045>047-102-103-070700- NORTH COAST CITY SKY/WX TMP DP RH WIND PRES REMARKS EDENTON CLOUDY 47 45 90 NW12G21 29.81S ELIZABETH CITY CLOUDY 47 45 93 W20G26 29.78R KITTY HAWK CLOUDY 48 48 100 W13G23 29.74R MANTEO CLOUDY 47 46 96 NW18G26 29.76R $$ NCZ045>047-081-094-103-104-070700- CENTRAL COAST CITY SKY/WX TMP DP RH WIND PRES REMARKS FRISCO MOCLDY 50 47 89 W12G26 29.77R $$ NCZ095-097-098-100-101-070700- SOUTHERN COAST CITY SKY/WX TMP DP RH WIND PRES REMARKS BEAUFORT PTCLDY 50 46 86 W12 29.82R CEDAR ISLAND NOT AVBL JACKSONVILLE NOT AVBL PINEY ISLAND PTCLDY N/A N/A N/A NW17G25 29.81R WILMINGTON CLOUDY 49 48 97 NW8 29.87S $$ NCZ011>013-027>030-043-044-078>080-089-090>093-098-070700- COASTAL PLAIN CITY SKY/WX TMP DP RH WIND PRES REMARKS AHOSKIE CLOUDY 43 42 95 NW3 29.83F CLINTON CLOUDY 45 44 96 NW6 29.89R ELIZABETHTOWN CLOUDY 46 46 97 NW6 29.90R GOLDSBORO CLOUDY 44 44 100 W10 29.86R GREENVILLE CLOUDY 45 43 93 NW8 29.88R HAVELOCK PTCLDY 48 45 89 W12 29.84R KENANSVILLE CLOUDY 45 43 93 W7 29.87S KINSTON N/A 45 43 93 W5 29.87R NEW BERN MOCLDY 47 43 86 W10 29.85R RICHLANDS CLOUDY 46 44 93 VRB7 29.87R ROCKY MOUNT CLOUDY 43 43 100 NW7 29.88R WASHINGTON CLOUDY 44 42 93 W10 29.84R WHITEVILLE CLOUDY 49 46 89 NW3 29.88S $$ AMZ130-135-150-152-154-156-158-170-250-252-270-ANZ085-086-088-633-658-670-070700- MARINE OBSERVATIONS STATION/POSITION TIME TEMP WIND PRES WAVE SWELL AIR SEA DIR/SP/G HT/PER HT/PER (UTC) (F) (DEG/KT/KT) (MB) (FT/S) (FT/S) CHESAPEAKE LIGHT NOT AVBL 64 E VA BEACH 0550 55 60 300/ 31/ 39 1001.8 11/11 7/11 DUCK 0548 49 55 290/ 21/ 26 1006.9 2 E DUCK NOT AVBL OREGON INLET 0542 49 57 280/ 19/ 26 1006.8 13E OREGON INLT NOT AVBL HATTERAS CG 0548 51 61 290/ 25/ 27 1007.8 DIAMOND BUOY 0550 58 74 300/ 27/ 33 1007.2 8/ 5 3/11 CAPE LOOKOUT 0600 51 290/ 19/ 22 1009.4 BEAUFORT LAB 0548 49 56 320/ 7/ 14 1008.8 30 SE NEW RVR IN 0508 53 70 300/ 23/ 31 1010.0 30 SE NEW RVR IN NOT AVBL 27 SE WRIGHTSVLE 0508 56 68 280/ 19/ 25 1010.2 5 SE WRIGHTSVLE 0508 51 62 300/ 17/ 27 1010.2 225 S CAPE HAT 0550 76 74 250/ 21/ 27 1009.0 12/ 9 41 SE CHARLESTON 0550 61 74 330/ 10/ 14 1011.6 4/ 8 3/ 8 $$

USA.gov is the U.S. government's official web portal to all federal, state and local government web resources and services.